sat.trackr.live / text

‹ back to catalog

PRAETORIAN SDA_608

NORAD 65571 · 2025-203G

PAYLOAD ACTIVE UNKNOWN

§ Identity

Operator
Country
US
Launch date
2025-09-10
Launch site
AFWTR
Launch vehicle
Mass (kg)
RCS (m²)

Purposes: military

External: N2YO · Heavens-Above · Gunter

§ Orbital elements

Epoch: 2026-09-20T00:14:14.686080Z

Period
104.06 min
Inclination
81.2973°
Eccentricity
0.0005075
Mean motion
13.83824981 rev/d
Perigee alt
946.6 km
Apogee alt
954.1 km
Semi-major
7,328.5 km
B*
4.3005e-5
RAAN
283.0279°
Arg perigee
309.0536°
Mean anomaly
51.0168°
Rev number
5,180

§ Raw data

PRAETORIAN SDA_6081 65571U 25203G   26263.00989220  .00000059  00000+0  43005-4 0  99942 65571  81.2973 283.0279 0005075 309.0536  51.0168 13.83824981 51802

JSON: /api/v1/satellites/65571 · /tle

For live sub-satellite position, see the globe view (requires WebGL).

§ Visibility from observer

Set your observer location to see the next 7 days of passes ≥ 10°. The values pass through the URL so the page stays shareable.

No JS? Fill the form by hand. The geolocation button needs JavaScript.